Portada
METAR-TAF:

METAR-TAF

Aeropuertos :

Aeropuerto Capitán Av. Selin Zeitun Lopez

Riberalta, Bolivia

latitud: 11-00S, longitud: 066-07W, altitud: 141 m

Observación

El informe se hizo hace 34 minutos, a las 20:00 UTC
Viento 6 kt del norte
Temperatura 33°C
Humedad 59%
Presión 1009 hPa
Visibilidad 10 km o más
Nubes dispersas a una altura de 1700 ft
Escasas nubes a una altura de 2000 ft, Cumulonimbus.
Cielo nuboso a una altura de 20000 ft

METAR: SLRI 202000Z 36006KT 9999 SCT017 FEW020CB BKN200 33/24 Q1009

Hora: 16:34 (20:34 UTC)


TAF: falta

Observaciones y pronósticos meteorológicos de más de 4000 aeropuertos (mensajes METAR y TAF).

Los puntos amarillos y rojos representan las estaciones disponibles.

Ponga el ratón en el punto deseado para ver el nombre de la estación.

Haga clic para ver las observaciones y los pronósticos meteorológicos.

Para cambiar el mapa : haga clic en los botones verdes con una cruz de color negro para hacer un zoom, en el botón verde con un guión para alejar o en las flechas verdes para mapas adyacentes.


METAR-TAF: